User: anonymous   Login
Location: Firnhaberau
(48.4049°N, 10.8963°E)
Time: 16:25:23
(UTC+00:00)
Language:

CZ-4C R/B - Orbit

View from above orbital plane
View from above orbital plane
View from above satellite
View from above satellite

Ground track
Ground track

The orbit data is extracted from the following two-line orbital elements,

1 36416U 10009D   20224.90468669 -.00000116 +00000-0 -32388-5 0  9997
2 36416 063.4247 051.8886 0500101 355.3077 004.3362 13.69571610521949
Epoch (UTC): 11 August 2020 21:42:44
Eccentricity: 0.0500101
inclination: 63.4247°
perigee height: 632 km
apogee height: 1370 km
right ascension of ascending node: 51.8886°
argument of perigee: 355.3077°
revolutions per day: 13.69571610
mean anomaly at epoch: 4.3362°
orbit number at epoch: 52194

The dashed part of the orbit path shows where the satellite is in the earth's shadow,  

DLR